Location: Piotrkow Trybunalski
(51.4000°N, 19.6830°E)
Time: 06:35:57
(UTC+02:00)

STRAND 1 - Pass Details

Date: 29 February 2024
Orbit: 764 x 779 km, 98.4° (Epoch: 24 April)

Event Time Altitude Azimuth Distance (km) Brightness Sun altitude
Rises 03:20:21 0° 111° (ESE) 3,261 ? -29.3°
Reaches altitude 10° 03:23:27 10° 91° (E) 2,337 ? -28.9°
Maximum altitude 03:26:36 17° 53° (NE) 1,914 ? -28.5°
Drops below altitude 10° 03:29:47 10° 15° (NNE) 2,344 ? -28.0°
Sets 03:32:52 0° 356° (N) 3,275 ? -27.6°
